Regional Weather Roundup
Issued by NWS

Home | Current Version | Previous Version | Text Only | Print | Product List | Glossary On
Versions: 1 2 3 4 5 6 7 8 9 10 11 12 13 14 15 16 17 18 19 20 21 22 23 24 25 26 27 28 29 30 31 32 33 34 35 36 37 38 39 40 41 42 43 44 45 46 47 48 49 50
000
ASUS45 KBOI 301810
RWRID

IDAHO REGIONAL WEATHER ROUNDUP
NATIONAL WEATHER SERVICE BOISE ID
1200 PM MDT SUN AUG 30 2015

NOTE: "FAIR" INDICATES FEW OR NO CLOUDS BELOW 12000 FEET
WITH NO SIGNIFICANT WEATHER AND/OR OBSTRUCTIONS TO VISIBILITY

IDZ012-014-301900-
SOUTHWEST IDAHO


CITY           SKY/WX    TMP DP  RH WIND       PRES   REMARKS
BOISE          MOSUNNY   74  42  31 NW5       30.00F
CALDWELL       MOSUNNY   75  41  29 NW9       30.01S
MOUNTAIN HOME  PTSUNNY   74  38  27 W8        30.00
$$

IDZ016-017-301900-
SOUTHCENTRAL IDAHO


CITY           SKY/WX    TMP DP  RH WIND       PRES   REMARKS
BURLEY         SUNNY     72  41  32 W10       30.04F
JEROME         SUNNY     73  35  25 W15       30.05S
TWIN FALLS     SUNNY     77  35  21 W14G20    30.06S
$$

IDZ019>023-301900-
SOUTHEAST IDAHO


CITY           SKY/WX    TMP DP  RH WIND       PRES   REMARKS
IDAHO FALLS    MOSUNNY   74  46  36 SW20G28   30.04S
POCATELLO      MOSUNNY   76  47  35 SW16G22   30.05F
REXBURG        PTSUNNY   71  46  40 SW15G25   30.04S
$$

IDZ006-010-011-018-031-032-301900-
CENTRAL IDAHO MOUNTAINS


CITY           SKY/WX    TMP DP  RH WIND       PRES   REMARKS
MCCALL         PTSUNNY   61  40  45 S13       30.04R
HAILEY         SUNNY     70  36  28 SW7       30.09
STANLEY          N/A     64  30  27 SE9G18    30.10S
SALMON         MOSUNNY   75  39  27 S13G22    29.88F
CHALLIS        MOSUNNY   73  34  23 S8G20     29.98F
$$

IDZ002-004-006-007-026-301900-
NORTHERN IDAHO


CITY           SKY/WX    TMP DP  RH WIND       PRES   REMARKS
LEWISTON       CLOUDY    71  52  50 N3        29.88R
LOWELL           N/A     68  58  70 CALM      29.90F
COEUR D`ALENE  CLOUDY    55  54  94 SE7       29.90S
MULLAN PASS    PTSUNNY   56  40  55 VRB6G16   29.96S
$$



USA.gov is the U.S. government's official web portal to all federal, state and local government web resources and services.